Location: ???????
(54.6339°N, 39.4245°E)
Time: 11:14:43
(UTC+00:00)

Meteor 1-10 Rocket - Pass Details

Date: 19 May 2025
Orbit: 834 x 909 km, 81.3° (Epoch: 13 June)

Event Time Altitude Azimuth Distance (km) Brightness Sun altitude
Exits shadow 20:11:52 15° 196° (SSW) 2,266 5.9 -14.0°
Maximum altitude 20:16:56 83° 284° (WNW) 910 4.4 -14.2°
Drops below altitude 10° 20:22:48 10° 13° (NNE) 2,560 7.7 -14.4°
Sets 20:25:15 0° 14° (NNE) 3,492 8.6 -14.5°
